Location: Chequamegon National Forest
(46.1070°N, 90.8420°W)
Time: 02:24:55
(UTC-06:00)

Amateur Radio Satellites - All Passes

Search period start: 21 November 2014 01:54
Search period end: 22 November 2014 01:54
Location: Chequamegon National Forest, 46.1070°N, 90.8420°W

Satellite Date Start Highest point End Downlink Frequencies (MHz)
Time Altitude Azimuth
DANDE 21 Nov 01:55:09 01:57:24 15° 267° (W) 01:59:58 436.750
BEESAT 21 Nov 02:00:14 02:03:16 17° 270° (W) 02:06:19 436.000
Gurwin Techsat 1B 21 Nov 02:14:44 02:19:37 35° 96° (E) 02:24:26 435.225
ITAMSAT 1 21 Nov 02:15:39 02:20:48 59° 101° (ESE) 02:25:54 435.822/435.867
YUBILEINY 21 Nov 02:16:49 02:24:54 43° 86° (E) 02:32:58 435.215
KKS-1 21 Nov 02:19:54 02:24:03 38° 262° (W) 02:28:14 437.445
ISS 21 Nov 02:39:10 02:42:26 68° 335° (NNW) 02:45:44 145.825
AO-7 21 Nov 02:43:01 02:47:44 16° 86° (E) 02:52:25 29.400- 29.500
MOZHAYETS 4 21 Nov 02:45:53 02:48:21 15° 59° (ENE) 02:50:50
Oscar 19 21 Nov 03:15:39 03:19:18 20° 300° (WNW) 03:22:57 437.125/150
HORYU 2 21 Nov 03:22:20 03:26:49 69° 102° (ESE) 03:31:18 437.375
STARS 21 Nov 03:30:44 03:32:18 12° 272° (W) 03:33:51 437.465
RS-15 21 Nov 03:49:44 03:58:48 30° 256° (WSW) 04:08:11 29.354- 29.394
Gurwin Techsat 1B 21 Nov 03:54:46 03:59:33 35° 294° (WNW) 04:04:18 435.225
ITAMSAT 1 21 Nov 03:56:01 03:59:52 22° 300° (WNW) 04:03:43 435.822/435.867
PCSat 21 Nov 03:58:08 04:02:07 20° 36° (NE) 04:06:05 145.827
STRAND 1 21 Nov 04:07:42 04:08:32 10° 52° (NE) 04:09:22 437.568
YUBILEINY 21 Nov 04:13:09 04:21:36 48° 288° (WNW) 04:30:04 435.215
ISS 21 Nov 04:16:30 04:19:29 30° 355° (N) 04:22:28 145.825
MOZHAYETS 4 21 Nov 04:20:24 04:24:59 76° 258° (WSW) 04:29:38
PRISM 21 Nov 04:22:05 04:25:34 26° 65° (ENE) 04:29:05 437.425
BEESAT 3 21 Nov 04:23:49 04:26:36 17° 34° (NE) 04:29:22 437.485
SO-50 21 Nov 04:26:39 04:30:28 27° 114° (ESE) 04:34:23 436.795
AO-7 21 Nov 04:33:31 04:41:55 75° 107° (ESE) 04:50:16 29.400- 29.500
BEESAT 2 21 Nov 04:34:31 04:37:32 19° 36° (NE) 04:40:31 435.950
JAS-2 21 Nov 04:42:40 04:49:31 39° 93° (E) 04:55:39 435.910
AIST 2 21 Nov 04:44:28 04:47:00 15° 31° (NNE) 04:49:30 435.215
CUTE-I 21 Nov 04:56:57 04:58:20 11° 86° (E) 04:59:42 437.470
HORYU 2 21 Nov 05:00:25 05:02:59 15° 300° (WNW) 05:05:34 437.375
PCSat 21 Nov 05:40:52 05:46:20 86° 58° (ENE) 05:51:46 145.827
STRAND 1 21 Nov 05:41:39 05:46:43 63° 71° (ENE) 05:51:50 437.568
CUBESAT XI-V 21 Nov 05:45:52 05:50:33 66° 73° (ENE) 05:55:15 437.345
Cubesat XI-IV 21 Nov 05:51:09 05:56:01 35° 96° (E) 06:00:51 437.490
AIST 1 21 Nov 05:52:01 05:53:49 12° 64° (ENE) 05:55:36
ISS 21 Nov 05:53:30 05:56:39 40° 16° (NNE) 05:59:49 145.825
PRISM 21 Nov 05:57:14 06:01:01 32° 263° (W) 06:04:51 437.425
O/OREOS (USA 219) 21 Nov 06:00:36 06:03:36 18° 101° (E) 06:06:36 437.305
BEESAT 3 21 Nov 06:01:13 06:05:27 90° 248° (WSW) 06:09:37 437.485
SO-50 21 Nov 06:06:27 06:10:49 44° 314° (NW) 06:15:20 436.795
BEESAT 2 21 Nov 06:12:07 06:16:21 79° 236° (SW) 06:20:32 435.950
YUBILEINY 21 Nov 06:18:55 06:21:09 11° 314° (NW) 06:23:22 435.215
AIST 2 21 Nov 06:22:06 06:26:25 71° 52° (NE) 06:30:41 435.215
AO-7 21 Nov 06:27:04 06:34:02 31° 307° (NW) 06:41:00 29.400- 29.500
JAS-2 21 Nov 06:27:34 06:34:40 47° 295° (WNW) 06:41:04 435.910
CUTE-I 21 Nov 06:33:54 06:39:16 80° 104° (ESE) 06:44:34 437.470
STRAND 1 21 Nov 07:22:49 07:26:21 18° 269° (W) 07:29:54 437.568
CUBESAT XI-V 21 Nov 07:25:40 07:28:27 15° 271° (W) 07:31:15 437.345
PCSat 21 Nov 07:26:00 07:29:00 15° 256° (WSW) 07:31:59 145.827
AIST 1 21 Nov 07:27:40 07:32:05 76° 263° (W) 07:36:27
ISS 21 Nov 07:30:10 07:33:23 49° 214° (SW) 07:36:36 145.825
Cubesat XI-IV 21 Nov 07:31:17 07:36:06 35° 295° (WNW) 07:40:53 437.490
O/OREOS (USA 219) 21 Nov 07:38:12 07:42:36 53° 299° (WNW) 07:47:00 437.305
BEESAT 3 21 Nov 07:42:08 07:42:59 11° 252° (WSW) 07:43:51 437.485
SO-50 21 Nov 07:50:28 07:52:36 13° 337° (NNW) 07:54:46 436.795
AIST 2 21 Nov 08:02:09 08:04:31 15° 250° (WSW) 08:06:52 435.215
GONETS M04 21 Nov 08:05:50 08:14:02 46° 87° (E) 08:22:18
CUTE 1.7 & AOD 2 21 Nov 08:09:09 08:12:10 19° 92° (E) 08:15:10 437.475
CUTE-I 21 Nov 08:15:19 08:18:41 17° 303° (WNW) 08:22:03 437.470
JAS-2 21 Nov 08:15:24 08:17:47 12° 317° (NW) 08:20:07 435.910
DOVE 4 21 Nov 08:19:25 08:20:46 11° 88° (E) 08:22:07 437.250
TIGRISAT 21 Nov 08:29:37 08:31:46 14° 60° (ENE) 08:33:55 435.000
Oscar 11 21 Nov 08:29:52 08:30:26 10° 87° (E) 08:30:59 145.826/435.025
GOMX 1 21 Nov 08:35:03 08:38:20 22° 93° (E) 08:41:37 467.674
BRITE-PL 21 Nov 08:36:00 08:39:45 31° 96° (E) 08:43:26 437.365/2234.400
BUGSAT 1 21 Nov 08:37:24 08:37:37 10° 57° (ENE) 08:37:50 437.445
UNISAT 6 21 Nov 08:39:26 08:42:14 17° 62° (ENE) 08:45:03 437.425
DX 1 21 Nov 08:43:13 08:45:16 13° 90° (E) 08:47:18 434.975-435.025
SEEDS 21 Nov 08:48:22 08:52:24 40° 98° (E) 08:56:26 437.485
POLYITAN 1 21 Nov 08:49:51 08:52:30 16° 62° (ENE) 08:55:09 437.675
HO-68 21 Nov 08:50:50 08:57:53 55° 101° (E) 09:04:51 435.675
QB50P2 21 Nov 08:53:52 08:56:43 18° 62° (ENE) 08:59:34 145.880/145.840
DUCHIFAT 1 21 Nov 09:03:03 09:06:16 21° 64° (ENE) 09:09:28 145.980
ANTELSAT 21 Nov 09:06:22 09:10:08 31° 68° (ENE) 09:13:53 437.575/2403.000
ZACube-1 21 Nov 09:07:18 09:08:35 11° 88° (E) 09:09:51 437.345
CANX-2 21 Nov 09:08:39 09:12:57 84° 103° (ESE) 09:17:15 2200.000
AAUSAT CUBESAT 2 21 Nov 09:16:03 09:20:14 61° 101° (E) 09:24:25 437.432
NANOSAT C BR1 21 Nov 09:20:53 09:24:39 31° 68° (ENE) 09:28:25 145.865
COMPASS 1 21 Nov 09:27:33 09:31:49 89° 284° (WNW) 09:36:04 437.405
QB50P1 21 Nov 09:29:47 09:33:45 38° 69° (ENE) 09:37:42 145.935-145.965
HUMSAT D 21 Nov 09:30:27 09:32:09 12° 89° (E) 09:33:51 437.325/437.525
CINEMA 3 21 Nov 09:33:00 09:37:00 43° 99° (E) 09:41:02 145.822/145.860
FUNcube-1 21 Nov 09:42:01 09:45:33 26° 95° (E) 09:49:07 145.935
CUBEBUG 2 21 Nov 09:42:54 09:46:46 35° 97° (E) 09:50:40 437.445
CUTE 1.7 & AOD 2 21 Nov 09:44:14 09:48:20 45° 289° (WNW) 09:52:25 437.475
UKube-1 21 Nov 09:47:26 09:51:44 58° 101° (ESE) 09:56:00 .
DELFI C3 21 Nov 09:48:12 09:52:18 59° 101° (E) 09:56:23 145.870
POPSAT HIP 1 21 Nov 09:53:30 09:57:45 67° 74° (ENE) 10:02:00 437.405
50 SAT 21 Nov 09:53:52 09:56:40 18° 92° (E) 09:59:28 437.505
UWE-3 21 Nov 09:54:18 09:58:16 41° 98° (E) 10:02:17 435.000/436.395/437.385
DOVE 4 21 Nov 09:54:56 09:59:04 68° 286° (WNW) 10:03:13 437.250
GONETS M04 21 Nov 10:02:35 10:10:53 45° 289° (WNW) 10:19:19
Oscar 11 21 Nov 10:02:50 10:07:12 84° 285° (WNW) 10:11:33 145.826/435.025
TIGRISAT 21 Nov 10:03:45 10:08:01 69° 258° (WSW) 10:12:17 435.000
ESTCUBE 1 21 Nov 10:05:14 10:07:12 13° 88° (E) 10:09:09 437.505/2401.250
BUGSAT 1 21 Nov 10:08:08 10:12:24 81° 75° (ENE) 10:16:41 437.445
GOMX 1 21 Nov 10:12:50 10:16:36 34° 291° (WNW) 10:20:21 467.674
UNISAT 6 21 Nov 10:14:29 10:18:41 52° 260° (W) 10:22:52 437.425
BRITE-PL 21 Nov 10:14:47 10:18:12 25° 294° (WNW) 10:21:34 437.365/2234.400
DX 1 21 Nov 10:17:39 10:21:59 68° 287° (WNW) 10:26:17 434.975-435.025
POLYITAN 1 21 Nov 10:23:49 10:28:02 58° 259° (W) 10:32:16 437.675
VELOX 1 21 Nov 10:23:56 10:28:14 46° 99° (E) 10:32:28 145.980
SEEDS 21 Nov 10:24:46 10:28:01 22° 295° (WNW) 10:31:15 437.485
QB50P2 21 Nov 10:28:07 10:32:17 52° 260° (W) 10:36:28 145.880/145.840
DUCHIFAT 1 21 Nov 10:37:51 10:41:54 42° 262° (W) 10:45:57 145.980
HO-68 21 Nov 10:38:58 10:45:18 35° 301° (WNW) 10:51:37 435.675
ZACube-1 21 Nov 10:41:17 10:45:28 73° 285° (WNW) 10:49:41 437.345
ANTELSAT 21 Nov 10:43:18 10:46:58 27° 265° (W) 10:50:37 437.575/2403.000
CANX-2 21 Nov 10:46:42 10:48:16 12° 301° (WNW) 10:49:51 2200.000
AISAT 21 Nov 10:46:45 10:51:13 81° 104° (ESE) 10:55:38 437.250
AAUSAT CUBESAT 2 21 Nov 10:53:02 10:55:28 15° 298° (WNW) 10:57:55 437.432
NANOSAT C BR1 21 Nov 10:56:54 11:00:33 27° 265° (W) 11:04:12 145.865
HUMSAT D 21 Nov 11:04:18 11:08:25 66° 286° (WNW) 11:12:33 437.325/437.525
COMPASS 1 21 Nov 11:05:51 11:06:53 11° 302° (WNW) 11:07:55 437.405
QB50P1 21 Nov 11:06:26 11:09:47 22° 267° (W) 11:13:07 145.935-145.965
CINEMA 3 21 Nov 11:10:59 11:13:58 19° 296° (WNW) 11:16:58 145.822/145.860
SO-50 21 Nov 11:15:22 11:18:08 15° 27° (NNE) 11:20:54 436.795
Oscar 19 21 Nov 11:17:42 11:21:07 18° 59° (ENE) 11:24:32 437.125/150
FUNcube-1 21 Nov 11:18:15 11:21:56 31° 292° (WNW) 11:25:39 145.935
CUBEBUG 1 21 Nov 11:19:34 11:23:57 67° 102° (ESE) 11:28:17 437.445
CUBEBUG 2 21 Nov 11:20:01 11:23:20 23° 294° (WNW) 11:26:41 437.445
UKube-1 21 Nov 11:24:42 11:27:29 17° 299° (WNW) 11:30:14 .
DELFI C3 21 Nov 11:24:49 11:27:10 15° 298° (WNW) 11:29:32 145.870
50 SAT 21 Nov 11:28:23 11:32:13 42° 289° (WNW) 11:36:03 437.505
SPROUT 21 Nov 11:29:34 11:32:49 21° 93° (E) 11:36:01 437.525
UWE-3 21 Nov 11:31:29 11:34:36 21° 295° (WNW) 11:37:45 435.000/436.395/437.385
POPSAT HIP 1 21 Nov 11:32:14 11:34:07 13° 271° (W) 11:36:01 437.405
TISAT 1 21 Nov 11:35:58 11:39:33 26° 95° (E) 11:43:07 437.305
ESTCUBE 1 21 Nov 11:40:04 11:44:38 75° 286° (WNW) 11:49:09 437.505/2401.250
Oscar 11 21 Nov 11:41:45 11:42:39 11° 302° (WNW) 11:43:33 145.826/435.025
BUGSAT 1 21 Nov 11:47:42 11:48:28 10° 272° (W) 11:49:14 437.445
ITAMSAT 1 21 Nov 11:59:01 12:02:31 18° 58° (ENE) 12:06:00 435.822/435.867
SHINDAISAT 21 Nov 11:59:28 12:01:18 33° 310° (NW) 12:03:09 437.305
VELOX 1 21 Nov 12:01:14 12:04:32 21° 297° (WNW) 12:07:48 145.980
Gurwin Techsat 1B 21 Nov 12:02:35 12:04:30 12° 53° (NE) 12:06:25 435.225
AUBIESAT-1 21 Nov 12:06:51 12:09:08 13° 93° (E) 12:11:24 437.475
M-CUBED/EXP-1 PRIME 21 Nov 12:07:57 12:10:42 15° 94° (E) 12:13:26 437.505
GONETS M04 21 Nov 12:10:04 12:10:41 10° 316° (NW) 12:11:19
BEESAT 21 Nov 12:19:57 12:22:15 13° 88° (E) 12:24:33 436.000
YUBILEINY 21 Nov 12:23:39 12:30:28 24° 60° (ENE) 12:37:13 435.215
AISAT 21 Nov 12:25:13 12:27:14 13° 302° (WNW) 12:29:15 437.250
HORYU 2 21 Nov 12:50:26 12:51:51 11° 57° (ENE) 12:53:17 437.375
Oscar 19 21 Nov 12:54:50 12:59:55 70° 257° (WSW) 13:05:03 437.125/150
SO-50 21 Nov 12:54:58 12:59:44 54° 48° (NE) 13:04:33 436.795
CUBEBUG 1 21 Nov 12:57:19 12:59:49 15° 300° (WNW) 13:02:18 437.445
SPROUT 21 Nov 13:05:03 13:09:05 41° 290° (WNW) 13:13:05 437.525
ITUPSAT 1 21 Nov 13:10:43 13:15:15 39° 98° (E) 13:19:44 437.325
TISAT 1 21 Nov 13:11:41 13:15:25 31° 293° (WNW) 13:19:07 437.305
ESTCUBE 1 21 Nov 13:20:02 13:20:41 10° 304° (NW) 13:21:20 437.505/2401.250
SWISSCUBE 21 Nov 13:23:37 13:28:23 57° 101° (E) 13:33:06 437.505
CUSAT 1 21 Nov 13:26:55 13:29:46 54° 99° (E) 13:32:20 437.405
DANDE 21 Nov 13:30:03 13:33:00 47° 99° (E) 13:35:35 436.750
ITAMSAT 1 21 Nov 13:36:13 13:41:26 73° 257° (WSW) 13:46:41 435.822/435.867
Gurwin Techsat 1B 21 Nov 13:38:15 13:43:31 70° 73° (ENE) 13:48:50 435.225
AUBIESAT-1 21 Nov 13:39:46 13:44:41 87° 290° (WNW) 13:49:36 437.475
STARS 21 Nov 13:40:40 13:42:19 12° 89° (E) 13:43:57 437.465
M-CUBED/EXP-1 PRIME 21 Nov 13:41:19 13:46:14 79° 291° (WNW) 13:51:10 437.505
AO-7 21 Nov 13:44:15 13:51:16 32° 53° (NE) 13:58:19 29.400- 29.500
BEESAT 21 Nov 13:55:52 14:00:41 77° 286° (WNW) 14:05:28 436.000
KKS-1 21 Nov 14:08:35 14:12:38 33° 97° (E) 14:16:38 437.445
YUBILEINY 21 Nov 14:19:40 14:28:26 84° 264° (W) 14:37:07 435.215
HORYU 2 21 Nov 14:23:24 14:27:49 87° 75° (ENE) 14:32:18 437.375
SO-50 21 Nov 14:36:07 14:40:00 24° 247° (WSW) 14:43:55 436.795
ITUPSAT 1 21 Nov 14:48:56 14:52:59 27° 296° (WNW) 14:56:59 437.325
JAS-2 21 Nov 14:56:48 15:02:57 28° 57° (ENE) 15:09:15 435.910
SWISSCUBE 21 Nov 15:02:24 15:05:50 20° 299° (WNW) 15:09:15 437.505
STARS 21 Nov 15:14:57 15:19:20 75° 286° (WNW) 15:23:43 437.465
AUBIESAT-1 21 Nov 15:16:16 15:19:00 15° 307° (NW) 15:21:45 437.475
M-CUBED/EXP-1 PRIME 21 Nov 15:18:05 15:20:32 14° 308° (NW) 15:23:00 437.505
Gurwin Techsat 1B 21 Nov 15:20:36 15:24:01 17° 271° (W) 15:27:27 435.225
AO-7 21 Nov 15:35:12 15:43:27 71° 254° (WSW) 15:51:48 29.400- 29.500
BEESAT 21 Nov 15:36:10 15:37:43 12° 305° (NW) 15:39:15 436.000
Cubesat XI-IV 21 Nov 15:39:31 15:41:47 13° 54° (NE) 15:44:03 437.490
KKS-1 21 Nov 15:45:26 15:49:11 27° 294° (WNW) 15:52:55 437.445
RS-15 21 Nov 16:03:44 16:13:36 41° 109° (ESE) 16:23:26 29.354- 29.394
HORYU 2 21 Nov 16:04:44 16:05:09 10° 273° (W) 16:05:34 437.375
O/OREOS (USA 219) 21 Nov 16:06:20 16:10:43 53° 61° (ENE) 16:15:05 437.305
MOZHAYETS 4 21 Nov 16:13:50 16:17:28 22° 92° (E) 16:21:05
MaSat-1 21 Nov 16:17:51 16:20:54 66° 117° (ESE) 16:23:41 437.345
VERMONT LUNAR 21 Nov 16:18:07 16:20:04 14° 154° (SSE) 16:22:02 437.305
YUBILEINY 21 Nov 16:18:24 16:23:50 19° 285° (WNW) 16:29:16 435.215
CUTE-I 21 Nov 16:19:48 16:24:09 26° 62° (ENE) 16:28:30 437.470
JAS-2 21 Nov 16:39:38 16:47:10 79° 257° (WSW) 16:55:06 435.910
Cubesat XI-IV 21 Nov 17:15:36 17:20:58 74° 73° (ENE) 17:26:20 437.490
PHONESAT 2.4 21 Nov 17:23:59 17:26:55 22° 162° (SSE) 17:29:52 2401.200-2431.200
AO-7 21 Nov 17:33:31 17:37:44 15° 275° (W) 17:41:59 29.400- 29.500
PRISM 21 Nov 17:37:54 17:41:38 29° 96° (E) 17:45:20 437.425
HO-68 21 Nov 17:39:31 17:42:31 13° 44° (NE) 17:45:31 435.675
CUBESAT XI-V 21 Nov 17:41:57 17:44:23 14° 88° (E) 17:46:48 437.345
O/OREOS (USA 219) 21 Nov 17:46:44 17:49:42 18° 259° (W) 17:52:39 437.305
MOZHAYETS 4 21 Nov 17:50:28 17:54:54 44° 290° (WNW) 17:59:19
STRAND 1 21 Nov 17:50:50 17:54:10 17° 90° (E) 17:57:29 437.568
VERMONT LUNAR 21 Nov 17:54:43 17:57:56 30° 171° (S) 18:01:09 437.305
CUTE-I 21 Nov 17:58:43 18:03:55 51° 260° (W) 18:09:10 437.470
GONETS M04 21 Nov 18:12:46 18:20:00 27° 62° (ENE) 18:27:10
RS-15 21 Nov 18:14:30 18:25:22 67° 313° (NW) 18:36:22 29.354- 29.394
JAS-2 21 Nov 18:28:38 18:33:22 17° 277° (W) 18:38:16 435.910
COMPASS 1 21 Nov 18:50:20 18:50:51 10° 58° (ENE) 18:51:23 437.405
Cubesat XI-IV 21 Nov 18:58:15 19:01:37 17° 271° (W) 19:04:59 437.490
PHONESAT 2.4 21 Nov 19:01:50 19:05:14 34° 179° (S) 19:08:38 2401.200-2431.200
CUTE 1.7 & AOD 2 21 Nov 19:05:13 19:08:14 19° 64° (ENE) 19:11:15 437.475
PRISM 21 Nov 19:13:28 19:17:09 29° 294° (WNW) 19:20:48 437.425
CUBESAT XI-V 21 Nov 19:17:40 19:22:21 71° 286° (WNW) 19:26:59 437.345
HO-68 21 Nov 19:21:45 19:28:40 53° 65° (ENE) 19:35:37 435.675
Oscar 11 21 Nov 19:26:56 19:28:47 13° 59° (ENE) 19:30:39 145.826/435.025
DOVE 4 21 Nov 19:26:57 19:30:15 20° 64° (ENE) 19:33:26 437.250
STRAND 1 21 Nov 19:28:45 19:33:51 66° 288° (WNW) 19:38:53 437.568
VERMONT LUNAR 21 Nov 19:32:45 19:36:01 31° 188° (S) 19:39:16 437.305
SHINDAISAT 21 Nov 19:39:56 19:41:51 82° 54° (NE) 19:43:43 437.305
DX 1 21 Nov 19:41:18 19:44:13 18° 61° (ENE) 19:47:09 434.975-435.025
SEEDS 21 Nov 19:43:25 19:47:20 39° 70° (ENE) 19:51:16 437.485
GOMX 1 21 Nov 19:45:17 19:49:45 37° 70° (ENE) 19:53:58 467.674
BRITE-PL 21 Nov 19:48:39 19:53:40 54° 72° (ENE) 19:58:18 437.365/2234.400
AIST 1 21 Nov 19:59:43 20:04:00 56° 95° (E) 20:08:20
CANX-2 21 Nov 20:04:14 20:08:27 83° 76° (ENE) 20:12:42 2200.000
ZACube-1 21 Nov 20:06:11 20:08:22 14° 61° (ENE) 20:10:31 437.345
GONETS M04 21 Nov 20:08:59 20:17:51 78° 265° (W) 20:26:36
AAUSAT CUBESAT 2 21 Nov 20:09:56 20:14:00 58° 73° (ENE) 20:18:07 437.432
BEESAT 2 21 Nov 20:13:21 20:14:21 11° 108° (ESE) 20:15:22 435.950
AISAT 21 Nov 20:13:45 20:15:52 13° 58° (ENE) 20:18:00 437.250
COMPASS 1 21 Nov 20:21:44 20:25:54 87° 75° (ENE) 20:30:06 437.405
PCSat 21 Nov 20:25:03 20:30:12 47° 115° (ESE) 20:35:24 145.827
HUMSAT D 21 Nov 20:25:50 20:27:55 14° 61° (ENE) 20:29:59 437.325/437.525
RS-15 21 Nov 20:30:47 20:40:14 32° 344° (NNW) 20:49:54 29.354- 29.394
CINEMA 3 21 Nov 20:37:24 20:41:47 56° 73° (ENE) 20:45:59 145.822/145.860
DELFI C3 21 Nov 20:39:32 20:43:30 53° 72° (ENE) 20:47:30 145.870
CUTE 1.7 & AOD 2 21 Nov 20:39:50 20:43:52 45° 261° (W) 20:47:57 437.475
PHONESAT 2.4 21 Nov 20:40:29 20:43:35 25° 196° (SSW) 20:46:40 2401.200-2431.200
FUNcube-1 21 Nov 20:40:51 20:44:31 29° 68° (ENE) 20:48:08 145.935
CUBEBUG 2 21 Nov 20:43:59 20:48:03 42° 71° (ENE) 20:52:02 437.445
UKube-1 21 Nov 20:44:57 20:49:17 70° 73° (ENE) 20:53:39 .
50 SAT 21 Nov 20:45:58 20:48:42 18° 64° (ENE) 20:51:26 437.505
CUBEBUG 1 21 Nov 20:46:36 20:47:04 10° 56° (ENE) 20:47:32 437.445
UWE-3 21 Nov 20:54:17 20:58:23 46° 71° (ENE) 21:02:25 435.000/436.395/437.385
Oscar 11 21 Nov 21:00:03 21:04:21 79° 257° (WSW) 21:08:41 145.826/435.025
DOVE 4 21 Nov 21:03:08 21:07:45 51° 260° (W) 21:12:07 437.250
ESTCUBE 1 21 Nov 21:07:23 21:10:23 18° 61° (ENE) 21:13:23 437.505/2401.250
HO-68 21 Nov 21:10:13 21:16:37 34° 264° (W) 21:23:05 435.675
STRAND 1 21 Nov 21:10:52 21:12:04 11° 307° (NW) 21:13:16 437.568
VERMONT LUNAR 21 Nov 21:11:40 21:13:55 16° 204° (SSW) 21:16:09 437.305
DX 1 21 Nov 21:15:46 21:20:04 55° 259° (W) 21:24:24 434.975-435.025
SEEDS 21 Nov 21:20:13 21:23:20 20° 268° (W) 21:26:29 437.485
GOMX 1 21 Nov 21:23:49 21:27:57 27° 265° (W) 21:31:52 467.674
VELOX 1 21 Nov 21:24:15 21:28:39 58° 72° (ENE) 21:33:04 145.980
BRITE-PL 21 Nov 21:28:42 21:32:25 20° 268° (W) 21:35:58 437.365/2234.400
BEESAT 3 21 Nov 21:36:21 21:40:27 80° 124° (SE) 21:44:39 437.485
AIST 1 21 Nov 21:39:20 21:42:04 16° 293° (WNW) 21:44:49
ZACube-1 21 Nov 21:40:02 21:44:16 67° 258° (WSW) 21:48:27 437.345
AISAT 21 Nov 21:47:24 21:51:54 81° 257° (WSW) 21:56:25 437.250
BEESAT 2 21 Nov 21:47:49 21:51:57 88° 305° (NW) 21:56:11 435.950
AAUSAT CUBESAT 2 21 Nov 21:47:53 21:50:05 14° 270° (W) 21:52:17 437.432
TIGRISAT 21 Nov 21:53:41 21:56:53 20° 93° (E) 22:00:08 435.000
HUMSAT D 21 Nov 21:59:07 22:03:15 66° 258° (WSW) 22:07:22 437.325/437.525
AIST 2 21 Nov 22:01:05 22:05:17 67° 123° (ESE) 22:09:34 435.215
UNISAT 6 21 Nov 22:04:16 22:07:57 26° 95° (E) 22:11:40 437.425
GONETS M04 21 Nov 22:08:01 22:13:07 17° 286° (WNW) 22:18:11
POLYITAN 1 21 Nov 22:08:08 22:11:12 19° 92° (E) 22:14:15 437.675
PCSat 21 Nov 22:08:55 22:13:48 33° 315° (NW) 22:18:42 145.827
QB50P2 21 Nov 22:12:00 22:15:15 21° 93° (E) 22:18:29 145.880/145.840
CINEMA 3 21 Nov 22:16:39 22:19:19 16° 269° (W) 22:21:56 145.822/145.860
DELFI C3 21 Nov 22:16:51 22:19:09 15° 270° (W) 22:21:28 145.870
FUNcube-1 21 Nov 22:17:13 22:20:52 28° 265° (W) 22:24:29 145.935
CUBEBUG 1 21 Nov 22:18:13 22:22:39 77° 75° (ENE) 22:27:08 437.445
50 SAT 21 Nov 22:19:50 22:23:44 45° 261° (W) 22:27:38 437.505
DUCHIFAT 1 21 Nov 22:21:00 22:24:32 25° 95° (E) 22:28:02 145.980
CUBEBUG 2 21 Nov 22:21:48 22:24:57 20° 267° (W) 22:28:04 437.445
UKube-1 21 Nov 22:24:01 22:25:57 13° 271° (W) 22:27:53 .
SPROUT 21 Nov 22:26:34 22:30:00 23° 65° (ENE) 22:33:26 437.525
TISAT 1 21 Nov 22:31:14 22:34:57 29° 67° (ENE) 22:38:39 437.305
ANTELSAT 21 Nov 22:32:02 22:36:18 48° 100° (E) 22:40:39 437.575/2403.000
UWE-3 21 Nov 22:32:18 22:35:11 18° 268° (W) 22:38:03 435.000/436.395/437.385
NANOSAT C BR1 21 Nov 22:39:17 22:43:17 39° 98° (E) 22:47:14 145.865
ESTCUBE 1 21 Nov 22:42:19 22:46:48 60° 259° (W) 22:51:21 437.505/2401.250
RS-15 21 Nov 22:47:05 22:56:48 33° 19° (NNE) 23:06:46 29.354- 29.394
QB50P1 21 Nov 22:48:26 22:52:34 50° 100° (E) 22:56:39 145.935-145.965
AUBIESAT-1 21 Nov 22:58:18 23:01:27 22° 57° (ENE) 23:04:49 437.475
SWISSCUBE 21 Nov 22:58:19 23:00:27 13° 56° (ENE) 23:02:35 437.505
M-CUBED/EXP-1 PRIME 21 Nov 22:59:59 23:03:16 24° 58° (ENE) 23:06:48 437.505
VELOX 1 21 Nov 23:02:52 23:05:37 16° 269° (W) 23:08:23 145.980
POPSAT HIP 1 21 Nov 23:12:31 23:16:46 90° 283° (WNW) 23:20:59 437.405
BEESAT 3 21 Nov 23:16:20 23:19:14 18° 325° (NW) 23:22:10 437.485
BUGSAT 1 21 Nov 23:23:59 23:28:08 81° 285° (WNW) 23:32:12 437.445
BEESAT 2 21 Nov 23:28:11 23:30:54 17° 326° (NW) 23:33:37 435.950
BEESAT 21 Nov 23:28:39 23:32:17 22° 62° (ENE) 23:35:55 436.000
TIGRISAT 21 Nov 23:29:43 23:33:51 44° 289° (WNW) 23:38:05 435.000
UNISAT 6 21 Nov 23:40:50 23:44:49 35° 291° (WNW) 23:48:51 437.425
AIST 2 21 Nov 23:41:04 23:44:20 21° 323° (NW) 23:47:39 435.215
POLYITAN 1 21 Nov 23:43:21 23:47:22 42° 290° (WNW) 23:51:21 437.675
QB50P2 21 Nov 23:47:23 23:51:20 39° 291° (WNW) 23:55:15 145.880/145.840
DUCHIFAT 1 21 Nov 23:56:41 00:00:27 32° 292° (WNW) 00:04:11 145.980
PCSat 21 Nov 23:57:44 23:58:59 11° 339° (NNW) 00:00:15 145.827
CUBEBUG 1 21 Nov 23:57:54 23:59:35 12° 272° (W) 00:01:17 437.445
CUSAT 1 22 Nov 00:00:48 00:04:43 60° 78° (ENE) 00:10:00 437.405
SPROUT 22 Nov 00:01:52 00:05:54 38° 262° (W) 00:09:58 437.525
DANDE 22 Nov 00:06:12 00:09:57 55° 78° (ENE) 00:14:59 436.750
TISAT 1 22 Nov 00:07:01 00:10:45 29° 264° (W) 00:14:30 437.305
ANTELSAT 22 Nov 00:09:40 00:12:49 20° 297° (WNW) 00:16:00 437.575/2403.000
ISS 22 Nov 00:15:01 00:16:39 13° 133° (SE) 00:18:17 145.825
NANOSAT C BR1 22 Nov 00:15:44 00:18:57 22° 296° (WNW) 00:22:10 145.865
ITUPSAT 1 22 Nov 00:20:01 00:24:45 61° 72° (ENE) 00:29:32 437.325
MaSat-1 22 Nov 00:21:41 00:22:39 12° 50° (NE) 00:23:36 437.345
QB50P1 22 Nov 00:25:16 00:28:07 18° 297° (WNW) 00:30:57 145.935-145.965
AUBIESAT-1 22 Nov 00:32:26 00:36:11 42° 257° (WSW) 00:40:18 437.475
SWISSCUBE 22 Nov 00:32:46 00:37:35 87° 75° (ENE) 00:42:26 437.505
M-CUBED/EXP-1 PRIME 22 Nov 00:34:30 00:38:09 36° 258° (WSW) 00:42:09 437.505
STARS 22 Nov 00:40:14 00:42:58 16° 61° (ENE) 00:45:42 437.465
POPSAT HIP 1 22 Nov 00:50:58 00:52:00 11° 302° (WNW) 00:53:03 437.405
RS-15 22 Nov 01:00:19 01:11:29 71° 49° (NE) 01:23:07 29.354- 29.394
Oscar 19 22 Nov 01:04:00 01:08:41 34° 96° (E) 01:13:21 437.125/150
BEESAT 22 Nov 01:05:09 01:09:48 51° 260° (W) 01:14:30 436.000
KKS-1 22 Nov 01:09:21 01:13:33 42° 69° (ENE) 01:17:46 437.445
YUBILEINY 22 Nov 01:29:28 01:36:01 24° 78° (ENE) 01:42:34 435.215
CUSAT 1 22 Nov 01:45:28 01:47:47 14° 268° (W) 01:50:24 437.405
